FW8363 Weather Reports


time (UTC)temp
F
wind
direction
speed
knots
gust
knots
rain 1hr
in
rain 24hr
in
rain mn
in
humidity
%
barometer
mb
20260503014151 -86 148 0.0 0.0 0.00 0.00 0.00 1015.6
20260503013512 -86 148 0.0 0.0 0.00 0.00 0.00 1015.5
20260503012128 -86 148 0.0 0.0 0.00 0.00 0.00 1015.4
20260503011506 -86 148 0.0 2.6 0.00 0.00 0.00 1015.3
20260503005026 -88 157 0.0 1.7 0.00 0.00 0.00 1015.1
20260503003649 -88 155 0.0 2.6 0.00 0.00 0.00 1014.9
20260503003012 -88 189 0.9 2.6 0.00 0.00 0.00 1014.8
20260503001603 -88 237 0.0 1.7 0.00 0.00 0.00 1014.7
20260502235608 -88 207 0.9 3.5 0.00 0.00 0.00 1014.5
20260502233607 -88 202 0.9 3.5 0.00 0.00 0.00 1014.2
20260502233002 -88 221 0.9 3.5 0.00 0.00 0.00 1014.1
20260502231548 -88 236 0.0 3.5 0.00 0.00 0.00 1014.0
20260502225625 -86 179 1.7 3.5 0.00 0.00 0.00 1013.6
20260502223548 -86 220 0.0 2.6 0.00 0.00 0.00 1013.5
20260502221503 -86 112 1.7 5.2 0.00 0.00 0.00 1013.4
20260502213525 -86 161 0.0 7.0 0.00 0.00 0.00 1013.3
20260502212147 -86 217 2.6 7.0 0.00 0.00 0.00 1013.2
20260502211504 -86 118 2.6 8.7 0.00 0.00 0.00 1013.1
20260502205513 -86 180 1.7 6.1 0.00 0.00 0.00 1013.1
20260502203543 -86 232 1.7 7.8 0.00 0.00 0.00 1013.4
20260502201526 -86 210 1.7 6.1 0.00 0.00 0.00 1013.7
20260502195603 -86 188 2.6 7.8 0.00 0.00 0.00 1013.9
20260502193548 -86 242 3.5 8.7 0.00 0.00 0.00 1014.1
20260502191510 -86 220 3.5 7.8 0.00 0.00 0.00 1014.2
20260502185602 -86 212 3.5 7.0 0.00 0.00 0.00 1014.4
20260502183543 -86 199 4.3 8.7 0.00 0.00 0.00 1014.5
20260502181548 -86 170 4.3 10.4 0.00 0.00 0.00 1014.4
20260502163550 -84 167 3.5 9.6 0.00 0.00 0.00 1014.8
20260502161503 -86 184 3.5 12.2 0.00 0.00 0.00 1014.9
20260502151526 -86 221 3.5 9.6 0.00 0.00 0.00 1014.7
20260502123003 -79 201 5.2 12.2 0.00 0.00 0.00 1014.2
20260502121605 -79 140 5.2 13.0 0.00 0.00 0.00 1014.2
20260502115647 -79 171 3.5 11.3 0.00 0.00 0.00 1014.1
20260502113600 -79 162 7.0 13.0 0.00 0.00 0.00 1014.2
20260502111502 -86 176 2.6 11.3 0.00 0.00 0.00 1014.1
20260502104607 -88 149 6.1 10.4 0.00 0.00 0.00 1013.9
20260502103156 -88 138 6.1 12.2 0.00 0.00 0.00 1013.7
20260502100124 -86 176 7.0 12.2 0.00 0.00 0.00 1013.7
20260502064658 -88 194 5.2 10.4 0.00 0.00 0.00 1013.9
20260502054006 -88 153 7.0 11.3 0.00 0.00 0.00 1014.2
20260502051642 -88 137 4.3 9.6 0.00 0.00 0.00 1014.4
20260502044646 -88 120 6.1 9.6 0.00 0.00 0.00 1014.6
20260502043109 -88 138 5.2 10.4 0.00 0.00 0.00 1014.8
20260502041615 -88 137 4.3 9.6 0.00 0.00 0.00 1014.7
20260502034653 -88 168 5.2 8.7 0.00 0.00 0.00 1014.6
20260502033204 -88 137 5.2 8.7 0.00 0.00 0.00 1014.3
20260502031658 -88 144 3.5 7.8 0.00 0.00 0.00 1014.5
20260502015037 -90 138 3.5 7.0 0.00 0.00 0.00 1014.0